Weather History for K79J - October, 2012

Change the Weather History Date:

Wednesday, October 10, 2012

  Actual Average (KCEW) Record (KCEW)
Temperature  
Mean Temperature 68 °F -  
Max Temperature 81 °F 80 °F 92 °F (1981)
Min Temperature 55 °F 56 °F 39 °F (2000)
Cooling Degree Days 3    
Growing Degree Days 18 (Base 50)    
Moisture  
Dew Point 56 °F    
Average Humidity 78    
Maximum Humidity 94    
Minimum Humidity 44    
Precipitation  
Precipitation 0.01 in - - ()
Sea Level Pressure  
Sea Level Pressure 30.12 in    
Wind  
Wind Speed 1 mph (North)    
Max Wind Speed 12 mph    
Max Gust Speed 18 mph    
Visibility 5 miles    
Events Fog    
Averages and records for this station are not official NWS values.
T = Trace of Precipitation, MM = Missing Value Source: NWS Daily Summary

Daily Weather History Graph

Daily Weather History Graph

Search for Another Location

Airport or City:

Trip Planner

Search our weather history database for the weather conditions in past years. The results will help you decide how hot, cold, wet, or windy it might be!

Date:

Astronomy

Oct. 10, 2012 Rise Set
Actual Time 6:45 AM CDT 6:18 PM CDT
Civil Twilight 6:21 AM CDT 6:43 PM CDT
Nautical Twilight 5:52 AM CDT 7:11 PM CDT
Astronomical Twilight 5:24 AM CDT 7:39 PM CDT
Moon 1:40 AM CDT (10/10) 3:04 PM CDT (10/10)
Length of Visible Light 12h 22m
Length of Day
11h 33m
Waning Crescent, 27% of the Moon is Illuminated
Oct 10
Waning Crescent
Oct 15
New
Oct 21
First Quarter
Oct 29
Full
Nov 6
Last Quarter

Hourly Weather History & Observations

Time (CDT) Temp. Heat Index Dew Point Humidity Pressure Visibility Wind Dir Wind Speed Gust Speed Precip Events Conditions
12:56 AM 57.9 °F - 53.1 °F 84% 30.08 in 6.0 mi Calm Calm - N/A   Haze
1:56 AM 57.0 °F - 53.1 °F 87% 30.08 in 5.0 mi Calm Calm - N/A   Clear
2:26 AM 57.2 °F - 53.6 °F 88% 30.09 in 6.0 mi Calm Calm - N/A   Partly Cloudy
2:56 AM 57.0 °F - 52.0 °F 83% 30.09 in 6.0 mi Calm Calm - N/A   Haze
3:07 AM 55.4 °F - 51.8 °F 88% 30.10 in 1.5 mi Calm Calm - N/A   Mostly Cloudy
3:09 AM 55.4 °F - 51.8 °F 88% 30.10 in 1.0 mi Calm Calm - N/A   Mist
3:15 AM 55.4 °F - 51.8 °F 88% 30.10 in 0.8 mi Calm Calm - N/A   Mist
3:37 AM 55.4 °F - 51.8 °F 88% 30.10 in 1.2 mi Calm Calm - N/A   Overcast
3:41 AM 55.4 °F - 51.8 °F 88% 30.10 in 2.0 mi Calm Calm - N/A   Overcast
3:45 AM 55.4 °F - 53.6 °F 94% 30.10 in 1.0 mi Calm Calm - N/A   Mist
3:50 AM 57.2 °F - 53.6 °F 88% 30.10 in 0.2 mi Calm Calm - N/A Fog Fog
3:56 AM 57.0 °F - 54.0 °F 89% 30.10 in 0.2 mi Calm Calm - N/A Fog Fog
4:51 AM 57.2 °F - 53.6 °F 88% 30.11 in 0.5 mi Calm Calm - N/A Fog Fog
4:56 AM 57.0 °F - 53.1 °F 87% 30.10 in 0.2 mi Calm Calm - N/A Fog Fog
5:06 AM 57.2 °F - 53.6 °F 88% 30.11 in 0.5 mi Calm Calm - N/A Fog Fog
5:22 AM 55.4 °F - 53.6 °F 94% 30.11 in 0.2 mi Calm Calm - N/A Fog Fog
5:56 AM 57.0 °F - 53.1 °F 87% 30.12 in 0.5 mi Calm Calm - N/A Fog Fog
6:13 AM 57.2 °F - 53.6 °F 88% 30.13 in 0.2 mi Calm Calm - N/A Fog Fog
6:56 AM 55.9 °F - 53.1 °F 90% 30.14 in 0.2 mi Calm Calm - 0.01 in Fog Fog
7:56 AM 57.9 °F - 55.0 °F 90% 30.14 in 0.2 mi Calm Calm - N/A Fog Fog
8:56 AM 62.1 °F - 57.9 °F 86% 30.16 in 0.2 mi Calm Calm - N/A Fog Fog
9:52 AM 64.4 °F - 60.8 °F 88% 30.18 in 1.5 mi NNE 3.5 mph - N/A   Overcast
9:56 AM 64.9 °F - 61.0 °F 87% 30.17 in 3.0 mi NNE 3.5 mph - N/A   Overcast
10:16 AM 68.0 °F - 60.8 °F 78% 30.17 in 8.0 mi NNE 4.6 mph - N/A   Scattered Clouds
10:56 AM 75.0 °F - 55.9 °F 51% 30.16 in 10.0 mi North 11.5 mph 18.4 mph N/A   Clear
11:56 AM 79.0 °F - 55.9 °F 45% 30.15 in 10.0 mi North 10.4 mph - N/A   Clear
12:56 PM 80.1 °F 80.4 °F 57.0 °F 45% 30.12 in 10.0 mi NNW 5.8 mph - N/A   Clear
1:56 PM 81.0 °F 81.1 °F 57.9 °F 45% 30.10 in 10.0 mi NNE 6.9 mph - N/A   Clear
2:56 PM 81.0 °F 81.1 °F 57.9 °F 45% 30.09 in 10.0 mi NNW 10.4 mph - N/A   Clear
3:56 PM 81.0 °F 81.0 °F 57.0 °F 44% 30.09 in 10.0 mi North 5.8 mph - N/A   Clear
4:56 PM 79.0 °F - 57.9 °F 48% 30.09 in 10.0 mi North 5.8 mph - N/A   Clear
5:56 PM 75.0 °F - 62.1 °F 64% 30.09 in 10.0 mi Calm Calm - N/A   Partly Cloudy
6:56 PM 70.0 °F - 61.0 °F 73% 30.11 in 10.0 mi Calm Calm - N/A   Clear
7:56 PM 66.9 °F - 61.0 °F 81% 30.13 in 10.0 mi Calm Calm - N/A   Clear
8:56 PM 66.0 °F - 60.1 °F 81% 30.14 in 10.0 mi Calm Calm - N/A   Clear
9:56 PM 64.9 °F - 60.1 °F 84% 30.16 in 8.0 mi Calm Calm - N/A   Clear
10:56 PM 63.0 °F - 57.9 °F 84% 30.16 in 9.0 mi Calm Calm - N/A   Clear
11:56 PM 63.0 °F - 57.9 °F 84% 30.15 in 7.0 mi Calm Calm - N/A   Clear